Regional Weather Roundup
Issued by NWS

Home | Current Version | Previous Version | Text Only | Print | Product List | Glossary On
Versions: 1 2 3 4 5 6 7 8 9 10 11 12 13 14 15 16 17 18 19 20 21 22 23 24 25 26 27 28 29 30 31 32 33 34 35 36 37 38 39 40 41 42 43 44 45 46 47 48 49 50
000
ASUS44 KLIX 240501
RWRLA
LOUISIANA WEATHER ROUNDUP
NATIONAL WEATHER SERVICE NEW ORLEANS LA
1200 AM CDT WED SEP 24 2014

NOTE: "FAIR" INDICATES FEW OR NO CLOUDS BELOW 12,000 FEET WITH NO
      SIGNIFICANT WEATHER AND/OR OBSTRUCTIONS TO VISIBILITY.
      SKY/WX - SKY CONDITION AND SIGNIFICANT WEATHER.
      TMP - AIR TEMPERATURE.    DP   - DEWPOINT TEMPERATURE.
      RH  - RELATIVE HUMIDITY.  PRES - PRESSURE.
      HX  - HEAT INDEX.         WCI  - WIND CHILL INDEX.

*  THESE STATIONS ARE NOT NWS OR FAA STATIONS AND ARE NOT UNDER
   NWS QUALITY CONTROL.

LAZ040-048-061>063-065-066-069-240600-
SOUTHEAST LOUISIANA

CITY           SKY/WX    TMP DP  RH WIND       PRES   REMARKS
N.O. AUDUBON     N/A     76  69  79 MISG        N/A
N.O. INTL ARPT CLEAR     73  63  70 SE3       30.08S
N.O. LAKEFRONT CLEAR     75  64  68 E7        30.08F
N.O. DOWNTOWN* FAIR      75  64  69 CALM      30.08F
SLIDELL        CLEAR     63  58  83 NE3       30.09S
BATON ROUGE    CLEAR     64  58  80 NE6       30.09S
BOOTHVILLE     CLEAR     78  65  63 E9        30.07F
BELLE CHASSE   CLEAR     68  63  84 NE3       30.07F
BOGALUSA*      FAIR      61  58  88 CALM      30.12S
GALLIANO*      NOT AVBL
NEW ROADS*     FAIR      63  58  85 CALM      30.10R
GONZALES*      FAIR      65  62  91 CALM      30.08S
HAMMOND*       NOT AVBL
HOUMA*         CLEAR     64  64 100 CALM      30.08S
PORT FOURCHON* MOCLDY    79  64  61 E13G24    30.09F

$$

LAZ041-044-053-054-240600-
SOUTHWEST LOUISIANA

CITY           SKY/WX    TMP DP  RH WIND       PRES   REMARKS
LAKE CHARLES   PTCLDY    66  58  75 NE6       30.08
LAFAYETTE      PTCLDY    66  61  84 CALM      30.09S
PATTERSON      CLEAR     63  61  94 CALM      30.10S
SALT POINT       N/A     69  64  84 CALM      30.07F
NEW IBERIA     PTCLDY    66  62  87 NW5       30.09S
CHENAULT AIRPK MOCLDY    65  58  78 CALM      30.09F

$$

LAZ027-028-240600-
CENTRAL LOUISIANA

CITY           SKY/WX    TMP DP  RH WIND       PRES   REMARKS
FORT POLK      MOCLDY    67  53  60 NE5       30.10S
ALEXANDRIA INT MOCLDY    64  56  75 N3        30.09S
ALEXANDRIA     PTCLDY    57  56  96 CALM      30.11S

$$

LAZ001-002-240600-
NORTHWEST LOUISIANA

CITY           SKY/WX    TMP DP  RH WIND       PRES   REMARKS
SHREVEPORT     CLEAR     65  51  60 N3        30.13S
BARKSDALE AFB  CLEAR     59  52  78 N5        30.14S
DTN SHREVEPORT CLEAR     63  53  70 NE5       30.14R

$$

LAZ014-016-240600-
NORTHEAST LOUISIANA

CITY           SKY/WX    TMP DP  RH WIND       PRES   REMARKS
MONROE         CLEAR     59  52  77 NE3       30.14S
TALLULAH       FAIR      57  55  93 NW3       30.12S

$$




USA.gov is the U.S. government's official web portal to all federal, state and local government web resources and services.